Meteo pe oră la Działoszyn

Astăzi, 29 Septembrie, Marţi

Timp Temperatura Precipitaţii Vânt Presiune Umiditate
00:00 +13°C° 0.4 mm 2 m/s 741 mmHg 90%
01:00 +13°C° 0 mm 1 m/s 741 mmHg 96%
02:00 +13°C° 0.5 mm 1 m/s 741 mmHg 96%
03:00 +13°C° 0.5 mm 2 m/s 741 mmHg 96%
04:00 +13°C° 0.5 mm 2 m/s 741 mmHg 96%
05:00 +13°C° 0.7 mm 2 m/s 741 mmHg 96%
06:00 +13°C° 0.7 mm 2 m/s 741 mmHg 96%
07:00 +13°C° 0 mm 1 m/s 741 mmHg 95%
08:00 +13°C° 0.1 mm 1 m/s 741 mmHg 92%
09:00 +14°C° 0.1 mm 2 m/s 741 mmHg 89%
10:00 +14°C° 0.1 mm 2 m/s 741 mmHg 87%
11:00 +15°C° 0 mm 2 m/s 742 mmHg 86%
12:00 +15°C° 0 mm 2 m/s 742 mmHg 84%
13:00 +15°C° 0 mm 2 m/s 742 mmHg 83%
14:00 +15°C° 0 mm 2 m/s 742 mmHg 84%
15:00 +15°C° 0 mm 2 m/s 742 mmHg 84%
16:00 +15°C° 0 mm 2 m/s 742 mmHg 85%
17:00 +15°C° 0 mm 2 m/s 742 mmHg 86%
18:00 +14°C° 0 mm 2 m/s 742 mmHg 87%
19:00 +13°C° 0 mm 3 m/s 743 mmHg 88%
20:00 +14°C° 0.4 mm 2 m/s 743 mmHg 90%
21:00 +13°C° 0.4 mm 2 m/s 743 mmHg 92%
22:00 +13°C° 0.4 mm 2 m/s 743 mmHg 94%
23:00 +13°C° 0.2 mm 2 m/s 743 mmHg 94%

Mâine, 30 Septembrie, Miercuri

Timp Temperatura Precipitaţii Vânt Presiune Umiditate
00:00 +12°C° 0.2 mm 3 m/s 743 mmHg 95%
01:00 +12°C° 0.2 mm 3 m/s 743 mmHg 95%
02:00 +12°C° 0 mm 3 m/s 742 mmHg 95%
03:00 +12°C° 0 mm 3 m/s 742 mmHg 95%
04:00 +11°C° 0 mm 3 m/s 742 mmHg 94%
05:00 +11°C° 0 mm 3 m/s 742 mmHg 93%
06:00 +11°C° 0 mm 4 m/s 742 mmHg 92%
07:00 +11°C° 0 mm 4 m/s 742 mmHg 91%
08:00 +12°C° 0 mm 4 m/s 742 mmHg 85%
09:00 +13°C° 0 mm 4 m/s 742 mmHg 80%
10:00 +14°C° 0 mm 4 m/s 742 mmHg 75%
11:00 +14°C° 0 mm 5 m/s 741 mmHg 73%
12:00 +15°C° 0 mm 5 m/s 741 mmHg 71%
13:00 +16°C° 0 mm 5 m/s 740 mmHg 70%
14:00 +16°C° 0 mm 5 m/s 740 mmHg 71%
15:00 +16°C° 0 mm 5 m/s 740 mmHg 71%
16:00 +16°C° 0 mm 5 m/s 740 mmHg 72%
17:00 +15°C° 0.2 mm 5 m/s 740 mmHg 76%
18:00 +15°C° 0.2 mm 4 m/s 740 mmHg 79%
19:00 +14°C° 0.2 mm 4 m/s 740 mmHg 82%
20:00 +14°C° 0 mm 4 m/s 740 mmHg 82%
21:00 +14°C° 0 mm 4 m/s 739 mmHg 82%
22:00 +14°C° 0 mm 4 m/s 739 mmHg 82%
23:00 +14°C° 0.2 mm 4 m/s 739 mmHg 84%

Poimâine, 1 Octombrie, Joi

Timp Temperatura Precipitaţii Vânt Presiune Umiditate
00:00 +13°C° 0.2 mm 4 m/s 739 mmHg 86%
01:00 +13°C° 0.2 mm 4 m/s 738 mmHg 88%
02:00 +13°C° 0.1 mm 3 m/s 738 mmHg 88%
03:00 +13°C° 0.1 mm 3 m/s 738 mmHg 88%
04:00 +12°C° 0.1 mm 3 m/s 738 mmHg 89%
05:00 +12°C° 0.1 mm 3 m/s 738 mmHg 89%
06:00 +13°C° 0.1 mm 2 m/s 737 mmHg 89%
07:00 +13°C° 0.1 mm 2 m/s 737 mmHg 89%
08:00 +14°C° 0 mm 2 m/s 737 mmHg 85%
09:00 +14°C° 0 mm 2 m/s 737 mmHg 81%
10:00 +15°C° 0 mm 2 m/s 737 mmHg 77%
11:00 +15°C° 0 mm 2 m/s 737 mmHg 75%
12:00 +15°C° 0 mm 2 m/s 736 mmHg 72%
13:00 +15°C° 0 mm 2 m/s 736 mmHg 70%
14:00 +14°C° 0.1 mm 2 m/s 736 mmHg 75%
15:00 +13°C° 0.1 mm 3 m/s 736 mmHg 80%
16:00 +12°C° 0.1 mm 3 m/s 736 mmHg 84%
17:00 +13°C° 0.3 mm 2 m/s 736 mmHg 86%
18:00 +12°C° 0.3 mm 2 m/s 736 mmHg 88%
19:00 +12°C° 0.3 mm 2 m/s 736 mmHg 89%
20:00 +12°C° 0.1 mm 2 m/s 736 mmHg 90%
21:00 +12°C° 0.1 mm 2 m/s 736 mmHg 91%
22:00 +12°C° 0.1 mm 2 m/s 736 mmHg 92%
23:00 +12°C° 0 mm 2 m/s 736 mmHg 93%

2 Octombrie, Vineri

Timp Temperatura Precipitaţii Vânt Presiune Umiditate
00:00 +12°C° 0 mm 1 m/s 736 mmHg 94%
01:00 +12°C° 0 mm 1 m/s 736 mmHg 95%
02:00 +12°C° 0 mm 1 m/s 736 mmHg 96%
03:00 +12°C° 0 mm 2 m/s 736 mmHg 96%
04:00 +12°C° 0 mm 2 m/s 736 mmHg 96%
05:00 +12°C° 0 mm 1 m/s 736 mmHg 95%
06:00 +12°C° 0 mm 1 m/s 736 mmHg 95%
07:00 +12°C° 0 mm 1 m/s 737 mmHg 94%
08:00 +13°C° 0 mm 1 m/s 737 mmHg 91%
09:00 +13°C° 0 mm 2 m/s 737 mmHg 88%
10:00 +14°C° 0 mm 2 m/s 737 mmHg 85%
11:00 +15°C° 0.1 mm 2 m/s 737 mmHg 80%
12:00 +16°C° 0.1 mm 2 m/s 737 mmHg 74%
13:00 +17°C° 0.1 mm 2 m/s 737 mmHg 69%
14:00 +17°C° 0 mm 2 m/s 737 mmHg 69%
15:00 +17°C° 0 mm 2 m/s 737 mmHg 69%
16:00 +17°C° 0 mm 2 m/s 736 mmHg 69%
17:00 +16°C° 0 mm 3 m/s 737 mmHg 73%
18:00 +14°C° 0 mm 3 m/s 737 mmHg 78%
19:00 +13°C° 0 mm 3 m/s 737 mmHg 82%
20:00 +13°C° 0 mm 4 m/s 737 mmHg 84%
21:00 +13°C° 0 mm 4 m/s 736 mmHg 86%
22:00 +13°C° 0 mm 5 m/s 736 mmHg 87%
23:00 +13°C° 0.1 mm 5 m/s 736 mmHg 85%

3 Octombrie, Sâmbătă

Timp Temperatura Precipitaţii Vânt Presiune Umiditate
00:00 +14°C° 0.1 mm 6 m/s 736 mmHg 83%
01:00 +14°C° 0.1 mm 6 m/s 735 mmHg 81%
02:00 +14°C° 0 mm 6 m/s 735 mmHg 83%
03:00 +14°C° 0 mm 6 m/s 735 mmHg 85%
04:00 +14°C° 0 mm 7 m/s 734 mmHg 86%
05:00 +14°C° 0 mm 7 m/s 734 mmHg 85%
06:00 +14°C° 0 mm 7 m/s 734 mmHg 84%
07:00 +14°C° 0 mm 7 m/s 734 mmHg 83%
08:00 +16°C° 0 mm 7 m/s 734 mmHg 75%
09:00 +18°C° 0 mm 7 m/s 734 mmHg 67%
10:00 +20°C° 0 mm 7 m/s 734 mmHg 59%
11:00 +22°C° 0 mm 7 m/s 734 mmHg 55%
12:00 +23°C° 0 mm 6 m/s 734 mmHg 50%
13:00 +26°C° 0 mm 6 m/s 734 mmHg 46%
14:00 +23°C° 0 mm 5 m/s 733 mmHg 50%
15:00 +22°C° 0 mm 4 m/s 733 mmHg 55%
16:00 +21°C° 0 mm 3 m/s 733 mmHg 60%
17:00 +21°C° 0 mm 4 m/s 733 mmHg 61%
18:00 +20°C° 0 mm 5 m/s 733 mmHg 62%
19:00 +20°C° 0 mm 5 m/s 733 mmHg 63%
20:00 +20°C° 0 mm 6 m/s 733 mmHg 63%
21:00 +19°C° 0 mm 6 m/s 733 mmHg 63%
22:00 +18°C° 0 mm 7 m/s 733 mmHg 64%
23:00 +18°C° 0 mm 7 m/s 732 mmHg 63%

4 Octombrie, Duminică

Timp Temperatura Precipitaţii Vânt Presiune Umiditate
00:00 +18°C° 0 mm 7 m/s 732 mmHg 63%
01:00 +18°C° 0 mm 7 m/s 731 mmHg 63%
02:00 +18°C° 0 mm 7 m/s 731 mmHg 63%
03:00 +19°C° 0 mm 6 m/s 731 mmHg 62%
04:00 +19°C° 0 mm 6 m/s 731 mmHg 62%
05:00 +20°C° 0 mm 6 m/s 731 mmHg 63%
06:00 +20°C° 0 mm 6 m/s 732 mmHg 63%
07:00 +20°C° 0 mm 6 m/s 732 mmHg 64%
08:00 +21°C° 0 mm 6 m/s 732 mmHg 60%
09:00 +22°C° 0 mm 7 m/s 732 mmHg 57%
10:00 +23°C° 0 mm 8 m/s 733 mmHg 54%
11:00 +23°C° 0 mm 8 m/s 733 mmHg 51%
12:00 +23°C° 0 mm 8 m/s 734 mmHg 48%
13:00 +23°C° 0 mm 9 m/s 734 mmHg 45%
14:00 +22°C° 0 mm 7 m/s 734 mmHg 48%
15:00 +21°C° 0 mm 6 m/s 735 mmHg 51%
16:00 +21°C° 0 mm 5 m/s 735 mmHg 53%
17:00 +20°C° 0 mm 4 m/s 736 mmHg 58%
18:00 +18°C° 0 mm 4 m/s 736 mmHg 62%
19:00 +17°C° 0 mm 4 m/s 737 mmHg 66%
20:00 +17°C° 0 mm 4 m/s 737 mmHg 67%
21:00 +17°C° 0 mm 3 m/s 737 mmHg 69%
22:00 +16°C° 0 mm 3 m/s 737 mmHg 70%
23:00 +16°C° 0 mm 3 m/s 737 mmHg 70%
Arată mai mult

We Need Your Consent

Meteoprog and our Service Providers may store and access personal data such as cookies, device identifiers or other similar technologies on your device and process such data to personalise content and ads, as well as provide social media features and to analyse the traffic.

  • Store and/or access information on your device

    Cookies, device identifiers or other information can be stored or accessed on your device for the purposes indicated above.

  • Personalised ads and content, ad and content measurement, audience insights, and products development

    Ads and content can be personalised based on a profile. More data can be added to better personalise ads and content. Ad and content performance can be measured. Insights about the audience who saw the ads and content can be derived. Such data can be used to develop or improve user’s experience, systems and software.

By clicking ‘I Agree’ you will allow the use of indicated cookies, device identifiers, web beacons or other similar technologies. Your settings can be changed in the browser on your device.

For certain purposes, legitimate interests may be relied on, rather than consent. You can read more about this in our Privacy and Cookie Policy.